Weather History for Syracuse, NY

Change the Weather History Date:

Wednesday, August 7, 2013

  Actual Average Record
Temperature  
Mean Temperature 73 °F 71 °F  
Max Temperature 79 °F 81 °F 96 °F (1965)
Min Temperature 66 °F 61 °F 48 °F (1948)
Degree Days  
Heating Degree Days 0 0  
Month to date heating degree days 1 0  
Since 1 June heating degree days 65 69  
Since 1 July heating degree days 4 8  
Cooling Degree Days 8 6  
Month to date cooling degree days 27 42  
Year to date cooling degree days 506 388  
Since 1 June cooling degree days 454 358  
Growing Degree Days 22 (Base 50)    
Moisture  
Dew Point 62 °F    
Average Humidity 71    
Maximum Humidity 78    
Minimum Humidity 64    
Precipitation  
Precipitation 0.00 in 0.11 in 1.69 in (1976)
Month to date precipitation 0.34 0.80  
Year to date precipitation 24.34 21.82  
Snow  
Snow 0.00 in 0.00 in 0.00 in (2002)
Month to date snowfall 0.0 0.0  
Since 1 June snowfall 0.0 0.0  
Since 1 July snowfall 0.0 0.0  
Snow Depth 0.00 in    
Sea Level Pressure  
Sea Level Pressure 29.99 in    
Wind  
Wind Speed 11 mph (SSE)    
Max Wind Speed 20 mph    
Max Gust Speed 26 mph    
Visibility 10 miles    
Events      
T = Trace of Precipitation, MM = Missing Value Source: NWS Daily Summary

Daily Weather History Graph

Daily Weather History Graph

Search for Another Location

Airport:

Trip Planner

Search our weather history database for the weather conditions in past years. The results will help you decide how hot, cold, wet, or windy it might be!

Date:

Astronomy

Aug. 07, 2013 Rise Set
Actual Time 6:01 AM EDT 8:17 PM EDT
Civil Twilight 5:30 AM EDT 8:49 PM EDT
Nautical Twilight 4:50 AM EDT 9:28 PM EDT
Astronomical Twilight 4:07 AM EDT 10:11 PM EDT
Moon 6:51 AM EDT (8/7) 8:20 PM EDT (8/7)
Length of Visible Light 15h 19m
Length of Day
14h 16m
New Moon, 1% of the Moon is Illuminated
Aug 7
New Moon
Aug 14
First Quarter
Aug 20
Full
Aug 28
Last Quarter
Sep 5
New

Hourly Weather History & Observations

Time (EDT) Temp. Dew Point Humidity Pressure Visibility Wind Dir Wind Speed Gust Speed Precip Events Conditions
12:54 AM 69.1 °F 57.0 °F 65% 30.03 in 10.0 mi South 9.2 mph - N/A   Scattered Clouds
1:54 AM 68.0 °F 57.9 °F 70% 30.02 in 10.0 mi SSE 6.9 mph - N/A   Mostly Cloudy
2:54 AM 68.0 °F 57.0 °F 68% 30.02 in 10.0 mi SSE 8.1 mph - N/A   Overcast
3:54 AM 66.9 °F 57.9 °F 73% 30.03 in 10.0 mi SE 5.8 mph - N/A   Overcast
4:54 AM 66.9 °F 57.9 °F 73% 30.02 in 10.0 mi SE 8.1 mph - N/A   Overcast
5:54 AM 66.0 °F 57.9 °F 75% 30.03 in 10.0 mi SE 6.9 mph - N/A   Overcast
6:54 AM 66.9 °F 59.0 °F 76% 30.03 in 10.0 mi SSE 8.1 mph - N/A   Overcast
7:54 AM 69.1 °F 60.1 °F 73% 30.03 in 10.0 mi ESE 6.9 mph - N/A   Mostly Cloudy
8:54 AM 72.0 °F 61.0 °F 68% 30.03 in 10.0 mi SE 10.4 mph - N/A   Mostly Cloudy
9:54 AM 73.0 °F 62.1 °F 68% 30.01 in 10.0 mi SSW 9.2 mph - N/A   Scattered Clouds
10:54 AM 75.0 °F 62.1 °F 64% 30.01 in 10.0 mi SSE 17.3 mph 25.3 mph N/A   Overcast
11:54 AM 73.9 °F 61.0 °F 64% 30.01 in 10.0 mi South 15.0 mph 23.0 mph N/A   Overcast
12:54 PM 75.0 °F 62.1 °F 64% 30.01 in 10.0 mi South 10.4 mph 19.6 mph N/A   Overcast
1:54 PM 75.0 °F 63.0 °F 66% 29.99 in 10.0 mi South 12.7 mph 20.7 mph N/A   Overcast
2:54 PM 75.0 °F 64.0 °F 69% 29.98 in 10.0 mi South 13.8 mph 25.3 mph N/A   Overcast
3:54 PM 79.0 °F 66.0 °F 64% 29.96 in 10.0 mi SSE 13.8 mph 20.7 mph N/A   Overcast
4:01 PM 78.8 °F 64.4 °F 61% 29.97 in 10.0 mi South 18.4 mph 23.0 mph N/A   Overcast
4:54 PM 75.9 °F 64.0 °F 67% 29.95 in 10.0 mi South 12.7 mph 25.3 mph N/A   Overcast
5:54 PM 75.9 °F 64.9 °F 69% 29.94 in 10.0 mi South 15.0 mph 21.9 mph N/A   Overcast
6:54 PM 75.0 °F 64.0 °F 69% 29.93 in 10.0 mi South 17.3 mph 21.9 mph N/A   Overcast
7:54 PM 73.9 °F 64.0 °F 71% 29.93 in 10.0 mi SSE 11.5 mph - N/A   Overcast
8:54 PM 73.0 °F 64.0 °F 73% 29.93 in 10.0 mi SE 6.9 mph - N/A   Overcast
9:54 PM 73.0 °F 64.9 °F 76% 29.93 in 10.0 mi SSE 9.2 mph - N/A   Mostly Cloudy
10:54 PM 73.0 °F 64.9 °F 76% 29.93 in 10.0 mi SSE 9.2 mph - N/A   Scattered Clouds
11:54 PM 73.0 °F 64.9 °F 76% 29.92 in 10.0 mi South 8.1 mph - N/A   Scattered Clouds